COSMOS 1275 DEB, 17616

Orbit data source: Space-Track

COSMOS 1275 DEB, 17616 is space debris in LEO originally from a launch on Thu, 04 Jun 1981 UTC launched from the Plesetsk Missile And Space Complex (PKMTR). Debris objects in space refer to the collection of defunct objects orbiting the Earth. Examples of debris include non-operational satellites, rocket bodies, and fragments generated from explosions, collisions, or faulty payload assembly.

Loading next visibility...
Identifier
17616, 1981-053KK
Orbit
LEO
Country
Flag of CISCIS
Related business
Manufacturer
Unknown
Mission
Spacecraft
Bus & Motor
Unknown
Mass
Unknown
Launch date (UTC)
1981-06-04 (45 years ago)
Launch vehicle
Unknown
Launch site
Plesetsk Missile And Space Complex (PKMTR)
Object type
Payload
Rocket body
Debris
Shape & HBR
Unknown shape, 0.1 m
Radar Cross Section
Small (<0.1 m²)

Expand to show TLE details & history
Last TLE update: 12 hours ago

TLE from 12 hours ago
0 COSMOS 1275 DEB
1 17616U 81053KK  26100.33382391  .00001087  00000-0  11604-2 0  9999
2 17616  83.0432  45.4849 0119634 337.6222 180.5878 13.70125893 32872
Epoch: 2026-04-10T08:00Z
TLE epoch observation values (Epoch: 2026-04-10T08:00:42.385Z)
Latitude
21.64566°
Longitude
-96.02202°
Altitude
1,090.028 km
Speed
7.265 km/s
True Right ascension
14h 50m 53s
True Declination
21° 31' 60"
Sunlit
Object was in full shadow at epoch
Visualization orbit readout
Latitude
Unknown
Longitude
Unknown
Altitude
Unknown
Speed
Unknown
Apparent Right ascension
Unknown
Apparent Declination
Unknown
Sunlit
N/A
Visualization observer readout
Local Sidereal Time
01:59:04
Azimuth
Unknown
Elevation
Unknown
Doppler factor
Unknown
Orbital elements
Apogee altitude
1,084.493 km
Perigee altitude
908.047 km
Semi-major axis
7,374.407 km
Eccentricity
0.01196
Inclination
83.0432°
RAAN
45.4849°
Arg. of periapsis
337.6222°
True anomaly
180.57394°
Mean anomaly
180.5878°
Eccentric anomaly
180.58085°
Mean motion
3.4273 °/min
Orbital period
105.04 mins
BSTAR
0.0011604
Loading maneuver chart data...
Computing Atmospheric mass density...

Documentation

Showing up to 5 results
|